TimeMDT,TemperatureF,Dew PointF,Humidity,Sea Level PressureIn,VisibilityMPH,Wind Direction,Wind SpeedMPH,Gust SpeedMPH,PrecipitationIn,Events,Conditions,WindDirDegrees,DateUTC
12:15 AM,46.4,46.4,100,30.16,10.0,Calm,Calm,-,N/A,,Clear,0,2013-09-09 06:15:00
12:35 AM,46.4,46.4,100,30.16,10.0,Calm,Calm,-,N/A,,Clear,0,2013-09-09 06:35:00
12:55 AM,46.4,46.4,100,30.16,10.0,Calm,Calm,-,N/A,,Clear,0,2013-09-09 06:55:00
1:15 AM,46.4,46.4,100,30.16,10.0,Calm,Calm,-,N/A,,Clear,0,2013-09-09 07:15:00
1:35 AM,44.6,44.6,100,30.16,10.0,Calm,Calm,-,N/A,,Clear,0,2013-09-09 07:35:00
1:55 AM,42.8,42.8,100,30.16,10.0,Calm,Calm,-,N/A,,Clear,0,2013-09-09 07:55:00
2:15 AM,42.8,42.8,100,30.16,10.0,WNW,5.8,-,N/A,,Clear,290,2013-09-09 08:15:00
2:35 AM,41.0,41.0,100,30.16,7.0,West,3.5,-,N/A,,Clear,270,2013-09-09 08:35:00
2:55 AM,41.0,41.0,100,30.16,7.0,West,5.8,-,N/A,,Clear,280,2013-09-09 08:55:00
3:15 AM,41.0,41.0,100,30.16,10.0,WNW,4.6,-,N/A,,Clear,300,2013-09-09 09:15:00
3:35 AM,41.0,41.0,100,30.16,10.0,NW,5.8,-,N/A,,Clear,310,2013-09-09 09:35:00
3:55 AM,39.2,39.2,100,30.16,10.0,WNW,4.6,-,N/A,,Clear,290,2013-09-09 09:55:00
4:15 AM,39.2,39.2,100,30.16,10.0,WNW,4.6,-,N/A,,Clear,290,2013-09-09 10:15:00
4:35 AM,41.0,41.0,100,30.16,10.0,West,4.6,-,N/A,,Clear,270,2013-09-09 10:35:00
4:55 AM,41.0,41.0,100,30.16,10.0,NW,3.5,-,N/A,,Clear,310,2013-09-09 10:55:00
5:15 AM,41.0,39.2,93,30.16,10.0,WNW,3.5,-,N/A,,Clear,300,2013-09-09 11:15:00
5:35 AM,39.2,39.2,100,30.16,10.0,Calm,Calm,-,N/A,,Clear,0,2013-09-09 11:35:00
5:55 AM,37.4,37.4,100,30.16,10.0,West,4.6,-,N/A,,Clear,280,2013-09-09 11:55:00
6:15 AM,37.4,37.4,100,30.15,10.0,West,4.6,-,N/A,,Clear,270,2013-09-09 12:15:00
6:35 AM,37.4,37.4,100,30.16,10.0,West,4.6,-,N/A,,Clear,280,2013-09-09 12:35:00
6:55 AM,37.4,37.4,100,30.16,10.0,West,4.6,-,N/A,,Clear,280,2013-09-09 12:55:00
7:15 AM,35.6,35.6,100,30.16,10.0,West,5.8,-,N/A,,Clear,280,2013-09-09 13:15:00
7:35 AM,37.4,37.4,100,30.16,10.0,West,4.6,-,N/A,,Clear,270,2013-09-09 13:35:00
7:55 AM,41.0,41.0,100,30.16,10.0,WNW,5.8,-,N/A,,Clear,300,2013-09-09 13:55:00
8:15 AM,42.8,42.8,100,30.16,10.0,WNW,4.6,-,N/A,,Clear,290,2013-09-09 14:15:00
8:35 AM,46.4,44.6,93,30.16,10.0,WNW,3.5,-,N/A,,Clear,290,2013-09-09 14:35:00
8:55 AM,50.0,46.4,87,30.16,10.0,NW,3.5,-,N/A,,Clear,320,2013-09-09 14:55:00
9:15 AM,51.8,46.4,82,30.16,10.0,Calm,Calm,-,N/A,,Clear,0,2013-09-09 15:15:00
9:35 AM,53.6,46.4,77,30.16,10.0,Calm,Calm,-,N/A,,Clear,0,2013-09-09 15:35:00
9:55 AM,55.4,46.4,72,30.17,10.0,Calm,Calm,-,N/A,,Clear,0,2013-09-09 15:55:00
10:15 AM,57.2,46.4,67,30.16,10.0,Calm,Calm,-,N/A,,Clear,0,2013-09-09 16:15:00
10:35 AM,57.2,44.6,63,30.16,10.0,Calm,Calm,-,N/A,,Clear,0,2013-09-09 16:35:00
10:55 AM,59.0,44.6,59,30.17,10.0,East,3.5,-,N/A,,Clear,100,2013-09-09 16:55:00
11:15 AM,59.0,42.8,55,30.17,10.0,Calm,Calm,-,N/A,,Clear,0,2013-09-09 17:15:00
11:35 AM,60.8,42.8,52,30.16,10.0,Calm,Calm,-,N/A,,Scattered Clouds,0,2013-09-09 17:35:00
11:55 AM,60.8,44.6,55,30.16,10.0,Calm,Calm,-,N/A,,Scattered Clouds,0,2013-09-09 17:55:00
12:15 PM,62.6,42.8,48,30.15,10.0,Calm,Calm,-,N/A,,Scattered Clouds,0,2013-09-09 18:15:00
12:35 PM,62.6,39.2,42,30.15,10.0,NNW,6.9,-,N/A,,Clear,330,2013-09-09 18:35:00
12:55 PM,62.6,39.2,42,30.15,10.0,Calm,Calm,-,N/A,,Scattered Clouds,0,2013-09-09 18:55:00
1:15 PM,64.4,33.8,32,30.14,10.0,NW,5.8,-,N/A,,Scattered Clouds,310,2013-09-09 19:15:00
1:35 PM,64.4,35.6,34,30.14,10.0,South,4.6,-,N/A,,Clear,190,2013-09-09 19:35:00
1:55 PM,66.2,37.4,35,30.13,10.0,WSW,5.8,-,N/A,,Clear,250,2013-09-09 19:55:00
2:15 PM,66.2,35.6,32,30.13,10.0,West,4.6,-,N/A,,Clear,260,2013-09-09 20:15:00
2:35 PM,68.0,33.8,28,30.12,10.0,WNW,8.1,-,N/A,,Clear,300,2013-09-09 20:35:00
2:55 PM,68.0,33.8,28,30.11,10.0,NNW,5.8,-,N/A,,Clear,340,2013-09-09 20:55:00
3:15 PM,68.0,33.8,28,30.11,10.0,NW,9.2,-,N/A,,Clear,310,2013-09-09 21:15:00
3:35 PM,68.0,32.0,26,30.11,10.0,NW,6.9,-,N/A,,Clear,320,2013-09-09 21:35:00
3:55 PM,69.8,32.0,25,30.11,10.0,WNW,4.6,-,N/A,,Clear,300,2013-09-09 21:55:00
4:15 PM,69.8,32.0,25,30.10,10.0,NW,6.9,-,N/A,,Clear,310,2013-09-09 22:15:00
4:35 PM,69.8,32.0,25,30.10,10.0,NNW,4.6,-,N/A,,Clear,330,2013-09-09 22:35:00
4:55 PM,69.8,32.0,25,30.10,10.0,WNW,4.6,-,N/A,,Scattered Clouds,290,2013-09-09 22:55:00
5:15 PM,69.8,32.0,25,30.11,10.0,West,8.1,-,N/A,,Clear,270,2013-09-09 23:15:00
5:35 PM,69.8,33.8,27,30.11,10.0,WNW,5.8,-,N/A,,Clear,290,2013-09-09 23:35:00
5:55 PM,69.8,32.0,25,30.11,10.0,West,8.1,-,N/A,,Clear,280,2013-09-09 23:55:00
6:15 PM,69.8,32.0,25,30.11,10.0,WNW,8.1,-,N/A,,Clear,300,2013-09-10 00:15:00
6:35 PM,68.0,32.0,26,30.11,10.0,West,5.8,-,N/A,,Clear,280,2013-09-10 00:35:00
6:55 PM,68.0,32.0,26,30.11,10.0,NW,6.9,-,N/A,,Clear,310,2013-09-10 00:55:00
7:15 PM,66.2,33.8,30,30.11,10.0,NNW,8.1,-,N/A,,Clear,330,2013-09-10 01:15:00
7:35 PM,62.6,37.4,39,30.12,10.0,NNW,6.9,-,N/A,,Clear,330,2013-09-10 01:35:00
7:55 PM,59.0,37.4,45,30.12,10.0,NW,8.1,-,N/A,,Clear,320,2013-09-10 01:55:00
8:15 PM,57.2,37.4,48,30.13,10.0,NNW,8.1,-,N/A,,Clear,330,2013-09-10 02:15:00
8:35 PM,53.6,39.2,58,30.13,10.0,WNW,6.9,-,N/A,,Clear,290,2013-09-10 02:35:00
8:55 PM,53.6,37.4,54,30.14,10.0,WNW,5.8,-,N/A,,Clear,290,2013-09-10 02:55:00
9:15 PM,51.8,39.2,62,30.14,10.0,WNW,4.6,-,N/A,,Clear,290,2013-09-10 03:15:00
9:35 PM,51.8,37.4,58,30.15,10.0,West,6.9,-,N/A,,Clear,270,2013-09-10 03:35:00
9:55 PM,51.8,37.4,58,30.15,10.0,WNW,4.6,-,N/A,,Clear,300,2013-09-10 03:55:00
10:15 PM,50.0,39.2,66,30.16,10.0,NW,6.9,-,N/A,,Clear,320,2013-09-10 04:15:00
10:35 PM,50.0,39.2,66,30.16,10.0,WNW,6.9,-,N/A,,Clear,300,2013-09-10 04:35:00
10:55 PM,50.0,39.2,66,30.16,10.0,NW,5.8,-,N/A,,Clear,320,2013-09-10 04:55:00
11:15 PM,50.0,39.2,66,30.17,10.0,NNW,6.9,-,N/A,,Clear,330,2013-09-10 05:15:00
11:35 PM,50.0,39.2,66,30.18,10.0,NW,5.8,-,N/A,,Clear,310,2013-09-10 05:35:00
11:55 PM,46.4,39.2,76,30.18,10.0,Calm,Calm,-,N/A,,Clear,0,2013-09-10 05:55:00